Regional Weather Roundup
Issued by NWS

Home | Current Version | Previous Version | Graphics & Text | Print | Product List | Glossary On
Versions: 1 2 3 4 5 6 7 8 9 10 11 12 13 14 15 16 17 18 19 20 21 22 23 24 25 26 27 28 29 30 31 32 33 34 35 36 37 38 39 40 41 42 43 44 45 46 47 48 49 50
000
ASUS45 KBOI 010310
RWRID

IDAHO REGIONAL WEATHER ROUNDUP
NATIONAL WEATHER SERVICE BOISE ID
900 PM MDT FRI JUL 31 2015

NOTE: "FAIR" INDICATES FEW OR NO CLOUDS BELOW 12000 FEET
WITH NO SIGNIFICANT WEATHER AND/OR OBSTRUCTIONS TO VISIBILITY

IDZ012-014-010400-
SOUTHWEST IDAHO


CITY           SKY/WX    TMP DP  RH WIND       PRES   REMARKS
BOISE          CLEAR     91  41  17 W5        30.00F
CALDWELL       CLEAR     91  37  15 SW3       29.98S
MOUNTAIN HOME  CLEAR     92  36  13 NW6       30.01S
$$

IDZ016-017-010400-
SOUTHCENTRAL IDAHO


CITY           SKY/WX    TMP DP  RH WIND       PRES   REMARKS
BURLEY         CLEAR     76  40  27 W3        30.11R
JEROME         CLEAR     83  36  18 SE6       30.11S
TWIN FALLS     CLEAR     79  24  13 SW5       30.10S
$$

IDZ019>023-010400-
SOUTHEAST IDAHO


CITY           SKY/WX    TMP DP  RH WIND       PRES   REMARKS
IDAHO FALLS    CLEAR     81  34  18 SW6       30.17S
POCATELLO      CLEAR     80  37  21 CALM      30.15S
REXBURG        CLEAR     79  42  26 S3        30.18R
$$

IDZ006-010-011-018-031-032-010400-
CENTRAL IDAHO MOUNTAINS


CITY           SKY/WX    TMP DP  RH WIND       PRES   REMARKS
MCCALL         CLEAR     82  38  20 CALM      30.17F
HAILEY         CLEAR     75  39  27 SW6       30.22R
STANLEY          N/A     65  30  27 SE3       30.30S
SALMON         CLEAR     79  39  24 S5        30.09R
CHALLIS        CLEAR     75  34  22 NW6       30.18S
$$

IDZ002-004-006-007-026-010400-
NORTHERN IDAHO


CITY           SKY/WX    TMP DP  RH WIND       PRES   REMARKS
LEWISTON       CLEAR     97  32  10 N8        29.89S HX  91
LOWELL           N/A     76  52  43 N3        29.95R
COEUR D`ALENE  CLEAR     82  25  12 SW5       29.94S
MULLAN PASS    CLEAR     74  24  15 VRB3      30.27F
$$



USA.gov is the U.S. government's official web portal to all federal, state and local government web resources and services.